TimeEDT,TemperatureF,Dew PointF,Humidity,Sea Level PressureIn,VisibilityMPH,Wind Direction,Wind SpeedMPH,Gust SpeedMPH,PrecipitationIn,Events,Conditions,WindDirDegrees,DateUTC
12:54 AM,23.0,12.9,65,30.30,10.0,Variable,3.5,-,N/A,,Clear,0,2013-03-18 04:54:00
1:54 AM,21.0,12.0,68,30.32,10.0,East,4.6,-,N/A,,Clear,80,2013-03-18 05:54:00
2:54 AM,19.9,10.9,68,30.33,10.0,East,3.5,-,N/A,,Clear,100,2013-03-18 06:54:00
3:54 AM,19.0,10.0,68,30.34,10.0,East,4.6,-,N/A,,Clear,80,2013-03-18 07:54:00
4:54 AM,19.0,10.0,68,30.34,10.0,ENE,4.6,-,N/A,,Clear,70,2013-03-18 08:54:00
5:54 AM,19.9,10.0,65,30.34,10.0,ENE,6.9,-,N/A,,Clear,60,2013-03-18 09:54:00
6:54 AM,19.9,9.0,62,30.34,10.0,NE,5.8,-,N/A,,Clear,40,2013-03-18 10:54:00
7:54 AM,21.9,9.0,58,30.33,10.0,Variable,5.8,-,N/A,,Clear,0,2013-03-18 11:54:00
8:54 AM,24.1,7.0,48,30.34,10.0,Variable,6.9,-,N/A,,Clear,0,2013-03-18 12:54:00
9:54 AM,26.1,5.0,41,30.32,10.0,SSE,8.1,-,N/A,,Clear,150,2013-03-18 13:54:00
10:54 AM,30.0,6.1,36,30.29,10.0,South,9.2,17.3,N/A,,Clear,170,2013-03-18 14:54:00
11:54 AM,30.9,6.1,35,30.27,10.0,South,9.2,19.6,N/A,,Overcast,170,2013-03-18 15:54:00
12:54 PM,30.9,8.1,38,30.26,10.0,South,8.1,-,N/A,,Overcast,190,2013-03-18 16:54:00
1:54 PM,30.0,10.9,45,30.25,10.0,South,8.1,-,N/A,,Overcast,180,2013-03-18 17:54:00
2:54 PM,30.9,17.1,57,30.19,10.0,Variable,6.9,-,0.00,,Overcast,0,2013-03-18 18:54:00
3:54 PM,30.9,18.0,59,30.12,10.0,SE,10.4,21.9,N/A,,Overcast,130,2013-03-18 19:54:00
4:19 PM,30.2,19.4,64,30.10,3.0,SE,10.4,18.4,0.00,Snow,Light Snow,140,2013-03-18 20:19:00
4:29 PM,30.2,19.4,64,30.10,1.8,ESE,8.1,19.6,0.00,Snow,Light Snow,120,2013-03-18 20:29:00
4:40 PM,28.4,21.2,74,30.10,0.5,ESE,9.2,17.3,0.00,Snow,Snow,120,2013-03-18 20:40:00
4:46 PM,28.4,23.0,80,30.09,0.2,Variable,5.8,-,0.00,Snow,Heavy Snow,0,2013-03-18 20:46:00
4:54 PM,28.0,24.1,85,30.12,0.2,Variable,5.8,-,0.02,Fog-Snow,Snow,0,2013-03-18 20:54:00
5:52 PM,28.4,24.8,86,30.07,0.2,Variable,3.5,-,0.10,Fog-Snow,Heavy Snow,0,2013-03-18 21:52:00
5:54 PM,28.0,26.1,92,30.10,0.2,Variable,4.6,-,0.11,Fog-Snow,Heavy Snow,0,2013-03-18 21:54:00
6:01 PM,28.4,24.8,86,30.06,0.2,Variable,4.6,-,0.01,Fog-Snow,Heavy Snow,0,2013-03-18 22:01:00
6:23 PM,28.4,24.8,86,30.05,0.5,Variable,4.6,-,0.03,Fog-Snow,Snow,0,2013-03-18 22:23:00
6:38 PM,28.4,24.8,86,30.04,0.8,ENE,6.9,-,0.04,Snow,Light Snow,60,2013-03-18 22:38:00
6:46 PM,28.4,24.8,86,30.04,1.0,Variable,4.6,-,0.04,Snow,Light Snow,0,2013-03-18 22:46:00
6:54 PM,28.0,24.1,85,30.07,1.0,Variable,3.5,-,0.04,Snow,Light Snow,0,2013-03-18 22:54:00
7:52 PM,28.4,24.8,86,30.01,1.0,Variable,4.6,-,0.03,Snow,Light Snow,0,2013-03-18 23:52:00
7:54 PM,28.0,24.1,85,30.04,1.0,Variable,3.5,-,0.03,Snow,Light Snow,0,2013-03-18 23:54:00
8:16 PM,28.4,24.8,86,30.01,1.8,Variable,4.6,-,N/A,Snow,Light Snow,0,2013-03-19 00:16:00
8:26 PM,28.4,23.0,80,30.00,2.0,Variable,6.9,-,0.01,Snow,Light Snow,0,2013-03-19 00:26:00
8:40 PM,28.4,21.2,74,30.00,1.5,ENE,8.1,-,0.01,Snow,Light Snow,60,2013-03-19 00:40:00
8:54 PM,28.0,23.0,81,30.03,1.8,Variable,6.9,-,0.01,Snow,Light Snow,0,2013-03-19 00:54:00
9:01 PM,28.4,21.2,74,30.00,2.5,Variable,5.8,-,0.01,Snow,Light Snow,0,2013-03-19 01:01:00
9:11 PM,28.4,21.2,74,29.99,3.0,Variable,5.8,-,0.01,Snow,Light Snow,0,2013-03-19 01:11:00
9:45 PM,28.4,21.2,74,29.98,2.5,Variable,4.6,-,0.02,Snow,Light Snow,0,2013-03-19 01:45:00
9:54 PM,28.9,21.9,75,30.01,3.0,Variable,5.8,-,0.02,Snow,Light Snow,0,2013-03-19 01:54:00
10:21 PM,28.4,23.0,80,29.95,2.5,Variable,6.9,18.4,0.02,Snow,Light Snow,0,2013-03-19 02:21:00
10:29 PM,28.4,23.0,80,29.95,4.0,Variable,6.9,17.3,0.02,Snow,Light Snow,0,2013-03-19 02:29:00
10:54 PM,30.0,23.0,75,29.94,6.0,ESE,8.1,18.4,0.02,,Overcast,120,2013-03-19 02:54:00
11:54 PM,30.9,24.1,76,29.90,8.0,ENE,10.4,20.7,0.01,,Overcast,70,2013-03-19 03:54:00